Flag for South Korea Weather past 2 weeks in Daegu, South Korea

Now
82 °F

Partly cloudy.


Feels Like: 91 °F
Forecast: 80 / 86 °F
Wind: 2 mph from North

Location: Taegu Ab

Current Time: Jul 24, 2014 at 11:39:40 PM

Latest Report: Jul 24, 2014 at 11:00 PM


Visibility: N/A

Pressure: 29.75 "Hg

Humidity: 84%

Dew point: 77 °F

Location of DaeguLocation

Historic Weather in Daegu — Graph

°F

Daegu temperature yesterday

Maximum temperature yesterday: 88 °F (at 6:00 PM)
Minimum temperature yesterday: 79 °F (at 1:00 AM)
Average temperature yesterday: 82 °F

Past Weeks' High & Low Weather Summary

 TemperatureHumidityPressure
High95 °F (Jul 24, 3:00 PM)94% (Jul 13, 5:00 AM)29.92 "Hg (Jul 13, 5:00 AM)
Low70 °F (Jul 12, 5:00 AM)32% (Jul 11, 4:00 PM)29.30 "Hg (Jul 10, 5:00 AM)
Average81 °F70%29.71 "Hg
* Reported Jul 9 10:00 PM — Jul 24 10:00 PM, Daegu, Weather by CustomWeather, © 2014

Note: Actual official high and low records may vary slightly from our data, if they occured in-between our weather recording intervals... More about our weather records

Advertising

Daegu weather history for previous 24 hours

 ConditionsComfort  
Time TempWeatherWind HumidityBarometerVisibility
10:00 PM
Jul 24
81 °FPartly cloudy.5 mph89%29.71 "HgN/A
9:00 PM81 °FPassing clouds.3 mph89%29.71 "HgN/A
8:00 PM81 °FPassing clouds.8 mph84%29.71 "HgN/A
7:00 PM82 °FPartly sunny.8 mph79%29.68 "HgN/A
6:00 PM82 °FThunderstorms. Partly sunny.8 mph74%29.68 "Hg6 mi
5:00 PM95 °FThundershowers. Partly sunny.6 mph53%29.62 "HgN/A
4:00 PM95 °FPartly sunny.8 mph50%29.62 "HgN/A
3:00 PM95 °FScattered clouds.7 mph47%29.65 "HgN/A
2:00 PM93 °FScattered clouds.10 mph49%29.65 "HgN/A
1:00 PM93 °FPartly sunny.8 mph53%29.68 "HgN/A
12:00 PM91 °FPartly sunny.8 mph56%29.68 "HgN/A
11:00 AM90 °FScattered clouds.8 mph59%29.68 "HgN/A
10:00 AM88 °FScattered clouds.3 mph62%29.68 "HgN/A
9:00 AM84 °FScattered clouds.3 mph70%29.68 "HgN/A
8:00 AM81 °FScattered clouds.2 mph79%29.71 "HgN/A
7:00 AM77 °FScattered clouds.1 mph89%29.68 "HgN/A
6:00 AM75 °FScattered clouds.1 mph89%29.68 "HgN/A
5:00 AM75 °FPassing clouds.1 mph89%29.68 "HgN/A
4:00 AM79 °FPassing clouds.1 mph79%29.66 "HgN/A
2:00 AM79 °FPassing clouds.5 mph79%29.68 "HgN/A
1:00 AM79 °FPassing clouds.7 mph79%29.68 "HgN/A
12:00 AM81 °FPassing clouds.6 mph79%29.68 "HgN/A
11:00 PM
Jul 23
81 °FPassing clouds.2 mph79%29.68 "HgN/A
Weather by CustomWeather, © 2014

See weather overviewHow to use our weather pages